Dewpoint
19 17 16 17 16 14 13 12 11 12 15 15 14 12 15 17 17 18 19 22 24 25 28 39 46 51 53 56 55 56 60 68 69 70 69 68 67 68 66 66 66 66 70 71
19 16 18 18 17 16 14 11 14 16 17 14 15 18 17 17 20 22 25 25 25 28 29 33 47 50 51 55 54 54 57 61 68 69 68 67 66 66 67 66 66 67 67 69
17 17 17 15 15 14 13 12 14 14 14 13 13 15 20 24 20 19 20 27 27 29 31 29 39 47 53 53 53 54 54 57 59 64 68 66 65 66 66 66 66 66 66 67
17 16 14 14 14 13 10 15 14 18 15 14 18 14 18 21 19 20 19 19 26 28 32 33 36 43 46 53 51 52 53 54 55 57 62 66 63 60 61 61 64 66 66 66
17 17 16 16 15 14 14 19 20 19 17 16 15 15 15 17 15 15 19 19 24 26 33 34 34 34 42 44 50 53 53 53 53 54 57 60 62 64 66 66 65 64 65 66
17 19 18 20 24 24 17 21 20 21 18 14 14 15 12 14 15 16 23 23 25 25 32 36 40 38 38 38 44 46 52 52 53 53 54 56 59 60 61 63 64 66 66 66
25 30 32 33 31 31 31 19 16 16 15 15 21 25 22 25 23 17 18 24 26 30 33 34 35 36 37 40 41 49 49 50 52 52 54 55 55 56 59 61 61 63 64 65
32 29 30 38 36 36 37 33 22 16 17 19 28 27 25 29 27 23 22 24 29 33 32 33 33 33 38 37 42 41 44 48 52 54 54 53 52 55 56 57 58 58 61 64
28 29 36 36 35 35 33 32 34 29 30 27 25 26 29 29 28 23 21 22 24 27 34 34 37 35 35 38 40 39 39 43 48 51 52 55 57 57 55 54 56 58 59 59
32 29 28 26 30 32 34 33 31 32 26 22 19 19 30 30 30 29 25 24 27 25 28 35 34 36 36 37 41 43 43 43 43 45 47 52 56 58 57 57 56 57 58 60
34 34 29 28 31 28 29 29 34 34 30 22 21 21 32 31 31 32 31 31 28 27 26 28 32 35 36 41 40 43 44 46 47 47 49 50 50 52 54 59 58 58 58 60
37 35 31 26 26 32 34 35 35 31 25 29 28 26 29 31 30 31 31 31 34 34 32 30 31 31 32 34 36 40 45 44 44 48 49 52 52 52 52 54 57 58 57 58
36 28 24 23 25 32 29 33 35 36 35 30 27 25 29 34 34 34 35 34 35 36 39 41 43 33 32 34 35 36 36 38 38 40 41 42 47 51 52 54 55 57 59 58
31 26 25 22 22 30 30 29 29 29 30 28 27 26 27 30 33 34 34 36 36 41 42 40 41 39 35 38 39 38 39 40 41 43 43 44 44 47 52 54 56 57 60 60
32 26 29 29 28 24 23 23 28 27 28 25 24 24 26 34 35 37 39 41 42 42 43 43 38 39 38 38 40 40 39 40 42 42 43 43 44 44 44 47 52 54 56 54
34 28 32 29 28 25 27 26 25 27 28 32 30 27 30 34 37 39 40 40 42 39 40 39 37 39 37 39 41 41 40 40 41 42 42 43 44 44 45 46 48 53 53 54
28 29 28 26 26 25 21 30 32 32 34 33 30 32 37 35 38 40 41 42 41 39 38 38 35 37 38 41 42 42 43 42 42 42 43 43 43 43 44 45 49 51 52 55
28 28 28 26 26 20 34 38 37 36 32 36 37 36 35 35 35 35 33 32 34 34 34 34 34 36 38 43 41 42 43 42 43 42 41 41 42 43 43 44 45 47 49 50
32 30 28 22 24 27 27 37 36 33 32 38 35 34 35 34 34 32 35 35 35 35 36 35 36 37 39 39 42 43 43 43 42 41 41 42 41 41 43 43 43 45 50 52
34 33 30 27 21 16 35 35 35 35 27 37 37 37 35 35 31 31 35 36 36 36 36 36 37 38 39 39 41 44 43 43 42 42 42 42 42 42 43 43 42 43 52 54
31 33 28 28 24 29 36 36 35 25 30 38 37 37 37 36 36 36 36 36 37 37 37 39 40 39 40 41 41 43 44 43 43 43 44 45 44 44 44 45 43 43 47 52
33 31 28 32 27 23 39 36 32 35 38 39 38 39 39 39 39 36 35 36 36 37 39 40 39 40 40 41 41 43 42 43 43 44 45 44 44 44 46 47 45 46 53 53
32 35 30 31 31 37 37 38 38 38 38 39 40 41 41 39 36 36 37 37 39 39 40 40 40 38 40 41 41 41 42 43 43 45 45 45 46 47 48 48 48 51 53 53
37 37 32 32 34 34 34 38 38 38 39 41 41 41 37 38 38 38 38 39 39 39 39 39 39 39 39 39 39 41 43 43 43 43 46 46 48 48 49 48 50 51 53 54
36 36 33 33 34 34 36 36 38 39 41 41 39 37 35 38 39 39 38 38 39 39 39 40 40 40 40 41 40 40 41 43 43 44 45 48 49 49 49 50 51 53 54 54
37 33 31 30 35 35 35 37 40 40 41 40 39 38 39 39 39 39 37 37 37 37 37 37 38 39 40 40 39 40 42 42 43 44 46 47 48 49 51 50 51 43 44 45
Lifted_Index
6 5 5 4 3 3 3 2 2 2 2 1 1 0 1 1 2 3 4 4 4 5 4 3 3 3 2 1 1 -0 -3 -7 -8 -8 -7 -5 -5 -5 -4 -4 -4 -5 -5 -6
5 5 4 3 3 2 2 2 2 2 2 1 1 1 1 1 3 3 4 4 4 4 4 3 3 3 2 2 1 0 -2 -5 -7 -8 -7 -6 -5 -4 -4 -4 -4 -4 -4 -5
5 4 3 2 1 1 1 1 2 2 2 2 1 1 1 2 3 3 3 3 3 4 4 3 3 3 3 2 2 1 -0 -2 -5 -6 -7 -6 -5 -4 -4 -4 -3 -3 -3 -4
4 3 2 1 1 0 1 1 1 1 1 2 2 2 2 3 3 3 3 3 3 3 4 4 3 3 3 3 2 2 1 0 -1 -3 -5 -5 -4 -3 -3 -3 -3 -3 -3 -3
3 2 1 1 0 0 0 1 1 1 1 1 2 2 2 3 3 2 2 3 3 3 3 4 4 4 4 4 3 2 2 1 1 0 -1 -2 -3 -3 -3 -3 -3 -3 -3 -3
2 1 1 -0 -0 -0 0 0 1 1 1 1 1 1 2 2 2 2 2 2 3 3 3 3 4 4 5 4 4 3 2 2 2 2 1 0 -1 -2 -2 -2 -2 -3 -3 -3
1 1 -0 -1 -1 -0 -0 0 0 0 0 1 1 1 1 2 1 1 1 1 2 3 3 3 3 4 4 4 4 3 3 2 2 2 1 1 1 0 -0 -1 -1 -1 -2 -2
0 0 -0 -0 -0 -0 -0 0 0 0 0 1 0 1 1 1 1 1 1 1 2 2 3 3 3 3 4 4 4 4 4 3 2 2 2 1 1 1 1 1 0 0 -0 -1
0 0 0 -0 -0 -0 -0 -0 0 0 0 0 1 1 1 1 1 1 1 1 2 2 2 2 2 3 3 4 4 4 4 4 3 3 2 2 1 1 1 1 1 1 1 0
-0 0 0 -0 -1 -1 -1 -0 -0 0 0 0 0 1 0 0 0 0 1 1 1 1 1 1 2 3 3 3 4 4 4 4 4 4 3 2 1 1 1 1 1 1 1 0
-0 -0 0 -0 -1 -1 -1 -0 0 0 0 0 1 1 0 0 0 0 0 1 1 1 1 1 1 2 2 3 3 3 3 4 4 4 3 3 2 2 1 1 0 0 0 0
-0 0 1 0 -0 -1 -0 -0 0 0 0 0 1 1 1 0 0 0 0 1 1 1 1 0 1 1 2 2 3 3 3 3 4 4 3 3 3 2 2 1 1 0 0 0
0 1 1 1 0 -0 -0 0 0 0 0 0 1 1 0 0 0 0 0 1 1 1 1 1 1 1 1 2 2 3 3 3 4 4 4 4 4 3 3 2 1 0 0 -0
1 1 1 1 0 0 1 0 0 0 0 0 0 0 -0 -0 -0 -0 0 0 1 1 1 1 1 1 1 2 2 2 3 3 4 4 4 4 4 4 4 3 2 1 0 0
1 1 1 1 1 1 1 0 0 0 0 0 0 0 -0 -1 -0 -0 0 0 0 1 1 1 1 1 1 2 2 2 3 3 4 4 4 4 4 5 5 4 3 2 1 1
1 1 1 1 1 1 1 0 0 0 0 1 1 0 0 -0 -0 0 0 0 0 1 1 1 1 1 1 2 2 2 2 3 4 4 4 4 4 5 5 4 3 2 2 2
1 1 1 1 1 1 0 0 -0 0 0 0 0 0 0 -0 -0 0 0 1 1 1 1 1 2 2 2 2 1 2 2 3 4 4 4 5 5 5 5 4 3 2 2 2
1 1 2 1 1 1 0 -0 0 0 -0 -0 -0 0 0 0 1 1 1 1 2 2 2 2 2 2 2 2 2 2 3 3 4 4 5 5 5 5 5 4 3 3 2 2
1 1 1 2 1 1 0 -0 0 0 -0 0 0 1 1 2 2 2 2 3 3 3 4 4 4 4 3 3 3 4 4 4 4 5 5 5 5 5 5 4 4 3 2 1
1 1 1 1 1 1 0 0 0 0 0 1 1 1 2 3 3 4 4 4 4 5 5 5 5 5 5 5 4 4 4 5 5 5 5 5 5 5 5 4 3 2 1 0
0 1 1 1 1 1 1 1 1 1 1 2 2 3 3 4 4 5 5 5 6 6 6 6 5 5 5 5 5 5 5 5 5 5 5 5 5 5 4 3 3 2 1 0
0 0 1 1 1 1 1 1 1 2 2 3 3 4 4 4 5 5 6 6 6 6 6 6 5 5 5 5 6 5 5 5 5 6 5 5 5 4 3 3 2 1 0 -0
0 1 1 1 1 1 1 2 2 3 3 4 4 4 5 5 6 6 6 6 6 6 6 6 6 5 5 6 6 6 6 6 5 5 5 4 4 3 2 2 1 0 -1 -1
1 1 1 1 2 2 2 2 3 4 4 4 5 5 6 7 7 8 8 8 8 8 8 8 8 7 7 7 8 7 7 6 5 5 4 3 3 2 2 1 0 -1 -1 -2
1 2 2 2 2 3 3 3 4 4 5 5 5 6 7 8 9 9 10 10 10 10 10 10 10 9 9 9 9 9 8 7 6 4 3 3 2 2 1 1 -0 -1 -2 -2
2 2 2 2 3 3 3 4 5 5 5 5 6 7 8 9 10 11 11 11 11 11 10 10 10 10 10 11 10 10 10 8 6 4 3 3 2 2 1 1 -0 -1 -1 -2